Location: Les Chemineaux
(47.3024°N, 1.5104°E)
Time: 18:02:55
(UTC+00:00)

NOSS 3-1 (A) - Pass Details

Date: 19 May 2025
Orbit: 639 x 1568 km, 63.4° (Epoch: 20 June)

Event Time Altitude Azimuth Distance (km) Brightness Sun altitude
Exits shadow 22:37:39 11° 232° (SW) 2,080 5.1 -20.7°
Maximum altitude 22:42:17 66° 315° (NW) 852 3.4 -21.0°
Drops below altitude 10° 22:48:09 10° 37° (NE) 2,612 6.2 -21.3°
Sets 22:51:01 0° 41° (NE) 3,708 7.0 -21.4°
